Zurück zum Katalog

STARLINK-5761

AktivKommunikationVLEO
NORAD 55599·PAYLOAD·🇺🇸 United States

Gestartet Feb 12, 2023 von Cape Canaveral Space Force Station

Loading…

Nächste Überflüge (nächste 24 Stunden)

TLE

AktuellSource: CelesTrak SupGP

Epoche: Sep 14, 2026, 22:21 UTC

1 55599C 23020AG  26257.93173611 -.00023158  00000+0 -83877-3 0  2576
2 55599  43.0045   5.6780 0002072 284.0830 270.7246 15.27588577    17

Verfolge STARLINK-5761 in Echtzeit mit AllMySat

Download on the App Store